SCP
0 0 0 0 0 0 0 0 0 0 0 0 0 0 0 0 0 0 0 0 0 0 0 0 0 0 0 0 0 0 0 0 0 0 0 0 0 0 0 0 0 0 0 0 0 0 0 0 0 0 0 0 0 0
0 0 0 0 0 0 0 0 0 0 0 0 0 0 0 0 0 0 0 0 0 -0 0 0 0 0 0 0 0 0 0 1 1 1 0 0 0 0 0 0 0 -0 0 1 1 0 0 0 0 0 0 -0 0 0
0 0 0 0 0 0 0 0 0 0 0 0 0 0 0 0 0 0 0 0 0 0 -0 0 0 0 0 0 0 0 0 0 0 0 0 0 1 0 0 0 0 0 0 0 0 0 0 -0 0 0 0 0 0 0
0 0 0 0 0 0 0 0 0 0 0 0 0 0 0 0 0 0 0 0 0 0 0 0 0 0 0 0 0 0 0 0 0 0 0 1 0 0 0 0 0 0 0 0 0 -0 0 0 0 0 0 0 0 0
0 0 0 0 0 0 0 0 0 0 0 0 0 0 0 0 0 0 0 0 0 0 0 0 0 0 0 0 0 0 0 0 0 0 0 0 0 0 0 -0 0 0 0 0 0 0 0 0 0 0 0 0 0 0
0 0 0 0 0 0 0 0 0 0 0 0 0 0 0 0 0 0 0 0 0 0 0 0 0 0 0 0 0 0 0 0 0 0 0 1 0 0 1 0 0 -0 0 1 1 0 0 0 0 0 0 0 0 0
0 0 0 0 0 0 0 0 0 0 0 0 0 0 0 0 0 0 0 0 0 0 0 -0 0 0 0 0 0 0 0 0 0 0 0 1 0 0 0 0 -0 0 0 0 0 0 0 0 0 0 0 0 0 0
0 0 0 0 0 0 0 0 0 0 0 0 0 0 0 0 0 0 0 0 0 0 0 -0 0 0 0 0 0 0 0 0 0 0 1 0 1 0 0 1 0 0 0 0 0 0 0 0 0 0 0 0 0 0
0 0 0 0 0 0 0 0 0 0 0 0 0 0 0 0 0 0 0 -0 0 0 0 0 0 0 0 0 0 0 0 0 0 0 1 1 0 1 0 0 0 0 0 0 0 0 0 0 0 0 0 0 0 0
0 0 0 0 0 0 0 0 0 0 0 0 0 0 0 0 0 0 0 0 0 0 0 0 0 0 0 0 0 0 1 0 0 0 0 1 0 0 0 0 0 0 0 0 0 0 0 0 0 0 0 0 0 0
0 0 0 0 0 0 0 0 0 0 0 0 0 0 0 0 0 0 0 0 0 0 0 0 0 -0 0 0 0 0 0 0 0 0 0 0 0 0 0 0 0 0 0 0 0 0 0 0 0 0 0 0 0 0
0 0 0 0 0 0 0 0 0 0 0 0 0 0 0 0 0 0 0 0 0 0 -0 0 0 -0 0 0 0 0 0 0 0 0 0 0 0 0 0 0 0 0 0 0 0 0 0 0 0 0 0 0 0 0
0 0 0 0 0 0 0 0 0 -0 0 0 0 0 0 0 0 0 0 0 0 0 0 0 0 -0 -0 0 0 0 0 0 0 0 0 0 0 0 0 0 0 0 0 0 0 0 -0 -0 -0 0 0 0 0 0
0 0 0 0 0 0 0 0 0 -0 0 0 0 0 0 0 0 0 0 0 0 0 0 0 0 -0 0 0 0 0 0 0 0 0 0 0 0 1 1 0 0 0 0 0 0 0 -0 -0 -0 -0 -0 0 0 0
0 0 0 0 0 0 0 0 -0 0 0 0 0 0 0 0 0 0 -0 0 0 0 -0 0 0 0 0 0 0 0 0 0 0 0 0 1 0 1 0 0 0 0 0 0 0 0 0 -0 -0 -0 -0 -0 0 0
0 0 0 0 0 0 0 0 0 0 0 0 0 0 0 0 0 -0 0 0 0 -0 -0 -0 0 0 0 0 0 -0 0 0 0 1 1 2 1 2 1 1 0 0 0 0 0 0 0 0 0 0 0 0 -0 -0
0 0 0 0 0 0 0 0 0 0 0 0 0 0 0 0 0 0 0 0 -0 -0 -0 0 0 0 0 0 -0 -0 0 0 1 2 1 2 2 2 2 1 0 0 0 0 0 0 0 0 0 0 0 0 0 0
0 0 0 0 0 0 0 0 0 0 0 0 0 0 0 0 0 0 0 -0 -0 -0 0 0 0 0 0 0 0 0 0 0 1 0 2 3 2 2 1 1 1 0 0 0 0 0 0 0 0 0 0 0 -0 0
0 0 0 0 0 0 0 0 0 0 0 0 0 0 0 0 0 -0 -0 -0 -0 0 0 -0 0 0 0 0 0 0 0 0 0 0 0 1 1 1 1 1 1 0 0 0 0 0 0 0 0 0 0 0 0 0
0 0 0 0 0 0 0 0 0 0 0 0 0 0 0 0 0 -0 -0 -0 -0 -0 -0 -0 0 0 0 0 0 0 0 0 0 0 0 1 0 1 1 0 0 0 0 0 0 0 0 0 0 0 0 0 0 0
0 0 0 0 0 0 0 0 0 0 0 0 0 0 0 0 0 -0 -0 -0 -0 -0 -0 -0 -0 0 0 0 0 -0 0 0 0 0 0 0 0 0 0 1 0 0 0 0 0 0 0 0 0 0 0 0 0 0
0 0 0 0 0 0 0 0 0 0 0 0 0 0 0 0 0 0 -0 -0 -0 0 -0 -0 -0 -0 0 0 0 0 0 1 1 0 0 0 0 0 0 0 0 0 0 0 0 0 0 0 0 0 0 0 0 0
0 0 0 0 0 0 0 0 0 0 0 0 0 0 0 0 0 0 0 0 0 0 0 0 -0 -0 0 0 0 0 0 1 1 0 0 0 0 0 0 0 0 0 0 0 0 0 0 0 0 0 0 0 0 0
0 0 0 0 0 0 0 0 0 0 0 0 0 0 0 -0 -0 0 0 0 0 0 0 -0 -0 -0 -0 0 0 0 0 1 1 0 0 0 0 0 0 0 0 0 0 0 0 0 0 0 0 0 0 0 0 0
0 0 0 0 0 0 0 0 0 0 0 0 0 0 0 0 0 0 0 0 0 0 -0 -0 -0 -0 0 0 0 0 1 1 0 0 0 0 0 0 0 0 0 0 0 0 0 0 0 0 0 0 0 0 0 0
0 0 0 0 0 0 0 0 0 0 0 0 0 0 0 0 0 0 0 0 0 0 0 0 0 -0 -0 -0 0 0 0 1 1 0 0 0 0 0 0 0 0 0 0 0 -0 -0 -0 0 0 0 0 0 0 0
0 0 0 0 0 0 0 0 0 0 0 0 0 0 0 0 0 0 0 0 0 0 -0 0 0 0 0 0 0 0 0 0 1 1 0 0 0 0 0 0 0 0 0 0 0 -0 -0 -0 -0 0 0 0 0 0
0 0 0 0 0 0 0 0 0 0 0 0 0 0 0 0 0 0 0 0 0 1 0 0 0 0 0 0 0 -0 0 0 0 0 0 0 0 0 0 0 0 0 0 0 -0 -0 -0 -0 0 -0 -0 0 0 0
0 0 0 0 0 0 0 0 0 0 0 0 0 0 0 0 0 0 0 0 0 0 1 0 0 0 0 0 0 0 0 0 0 0 0 0 0 0 0 0 0 0 0 0 0 0 -0 -0 -0 0 0 0 0 0
0 0 0 0 0 0 0 0 0 0 0 0 0 0 -0 -0 -0 -0 -0 0 0 0 0 1 0 0 0 0 0 0 0 0 0 0 0 0 0 0 0 0 0 0 0 0 0 0 0 0 0 0 0 0 0 0
0 -0 -0 -0 -0 0 0 0 0 0 0 0 0 0 -0 -0 -0 -0 0 0 0 0 0 1 1 1 0 0 0 0 0 0 0 0 0 0 0 0 0 0 0 0 0 0 0 0 0 0 0 0 0 0 0 0
-0 -0 -0 0 0 0 -0 0 -0 -0 -0 -0 0 0 -0 -0 0 0 0 0 0 0 0 0 0 0 0 0 0 0 0 0 0 0 0 0 0 0 0 0 0 0 0 0 0 -0 -0 0 0 0 0 0 0 0
-0 -0 0 0 0 0 0 0 -0 -0 0 0 0 0 0 0 0 0 0 0 0 0 0 0 0 0 0 0 0 0 0 0 0 0 0 0 0 0 0 0 0 0 -0 0 -0 0 0 0 0 0 0 0 0 0
Wind_Speed_500mb
65 57 50 44 37 33 30 29 27 20 18 14 14 15 15 16 12 8 12 19 16 12 45 33 36 43 45 29 14 32 11 13 14 20 23 25 11 8 17 13 25 27 21 17 16 16 11 8 16 8 7 3 18 16
63 57 50 43 37 33 29 29 28 26 20 17 14 14 16 16 14 10 13 17 21 18 31 40 50 43 37 30 31 30 31 27 17 10 10 9 6 5 12 6 14 29 26 10 8 6 31 49 27 16 14 12 11 21
62 53 46 41 37 31 28 26 26 26 24 18 16 16 16 16 16 12 12 15 17 22 45 45 47 43 40 37 27 21 29 27 17 24 16 6 10 11 7 4 10 24 26 12 13 17 32 61 10 9 9 14 14 24
59 50 45 41 36 31 27 23 24 23 24 20 17 15 16 17 18 13 12 10 13 13 9 19 23 33 37 39 31 33 41 40 38 31 22 5 7 6 7 3 10 44 15 21 13 27 39 29 16 18 15 17 20 24
55 45 43 40 36 33 27 26 21 22 23 21 17 16 16 16 17 17 16 17 14 15 8 24 44 41 35 39 41 36 33 32 32 30 16 14 17 11 23 11 21 18 7 5 15 32 24 32 24 19 20 21 23 32
51 47 44 39 38 35 28 23 25 21 21 20 17 16 16 14 14 7 10 20 11 16 7 8 18 42 31 34 33 35 32 30 29 23 24 29 6 7 6 10 16 26 27 8 17 27 41 35 26 23 25 25 28 28
47 46 44 41 40 36 31 22 25 22 21 21 17 15 15 14 16 19 6 5 6 14 6 10 13 24 34 42 37 34 31 29 32 33 33 37 19 15 8 10 57 89 32 36 36 39 36 27 31 26 28 26 27 26
48 47 45 42 42 38 31 22 23 23 20 20 14 12 12 13 19 25 21 22 14 12 6 6 8 19 31 19 33 34 35 29 21 26 31 27 11 3 7 27 34 42 41 35 21 23 28 34 30 30 29 29 29 29
48 48 45 43 43 39 32 25 24 21 21 19 12 8 6 9 16 18 16 7 8 14 6 7 7 6 36 30 28 17 22 9 23 19 25 16 17 6 18 27 37 36 24 36 35 38 36 34 30 28 29 29 30 31
48 46 45 44 42 40 35 30 27 25 25 20 15 7 12 20 12 13 10 9 10 13 12 10 13 13 22 31 12 7 13 14 15 23 29 23 16 42 28 20 16 40 31 39 44 40 40 34 32 29 30 28 29 32
47 47 46 43 41 39 37 33 33 34 32 22 14 9 9 26 15 13 10 15 17 11 18 21 39 6 30 18 15 9 7 10 24 16 22 21 25 27 30 30 23 23 34 31 29 30 29 35 36 33 30 29 32 34
49 49 46 44 40 41 38 39 44 47 32 25 5 4 20 15 15 12 10 9 10 10 24 29 44 37 27 10 7 8 10 10 15 29 23 33 20 37 40 38 27 38 40 30 23 29 33 33 34 34 33 33 34 34
49 50 48 48 43 42 41 46 53 45 29 17 11 8 10 13 4 12 16 10 9 12 13 20 18 29 12 15 7 2 12 11 16 12 4 12 34 50 46 40 32 28 33 32 30 34 36 36 35 36 36 36 37 37
52 52 52 51 44 44 48 53 48 49 15 12 11 5 10 12 14 17 19 21 23 7 13 10 23 18 13 7 5 7 11 13 12 15 11 17 58 47 52 50 47 43 45 37 38 41 39 41 39 37 37 41 41 40
55 54 55 51 48 50 55 58 57 50 11 12 13 9 17 28 20 13 37 12 4 5 10 12 16 16 15 8 6 6 9 9 9 13 12 48 42 41 50 53 44 50 47 42 45 45 42 41 43 41 40 41 39 40
59 50 55 55 55 56 61 53 66 37 8 9 14 16 23 28 26 18 20 13 4 3 3 10 7 9 6 7 7 6 10 9 13 3 29 51 40 50 53 47 42 45 47 50 47 46 45 44 45 46 43 41 39 39
61 45 61 60 61 66 65 54 39 14 14 11 16 31 25 27 29 9 10 6 1 4 6 6 6 7 9 11 17 12 7 9 26 17 36 36 40 45 47 49 48 49 52 51 51 49 48 47 48 48 45 41 39 37
63 58 66 66 72 70 68 38 14 18 16 25 17 25 33 19 24 4 9 5 6 4 4 6 12 9 9 22 19 7 26 25 5 19 29 35 37 42 43 48 47 50 52 52 53 52 52 52 50 45 44 41 38 35
63 57 70 80 86 52 14 26 15 11 25 28 38 16 14 30 12 12 11 9 10 3 2 3 11 14 13 5 10 22 29 51 29 12 20 28 36 41 44 45 48 48 50 52 56 53 50 47 42 43 40 41 34 33
54 67 82 85 82 13 11 12 28 11 14 31 38 35 30 23 18 19 17 15 9 6 12 12 13 21 32 32 12 31 31 29 18 17 20 23 30 37 44 50 49 51 50 52 47 48 46 41 39 39 37 38 34 32
71 82 81 79 44 10 9 16 24 20 8 13 25 32 30 28 30 16 22 26 20 9 11 29 43 49 51 53 31 46 1 29 19 17 29 27 29 35 42 41 49 44 49 48 47 43 42 40 39 37 36 33 28 27
75 85 68 38 19 8 12 17 22 24 25 21 17 26 25 30 38 36 39 37 37 37 34 33 28 36 59 55 52 32 26 19 3 15 23 28 34 37 42 43 46 44 43 42 43 43 40 36 35 35 32 30 27 25
87 59 36 12 8 10 12 13 20 18 12 11 30 13 14 29 37 35 41 42 45 42 42 36 38 33 37 50 55 33 23 20 10 14 16 18 24 34 37 39 40 43 43 41 39 38 36 37 38 32 31 30 27 27
62 27 15 18 16 12 10 13 12 18 17 15 9 24 22 26 32 37 22 41 43 41 37 39 33 23 23 40 57 48 21 19 10 17 17 21 30 32 35 40 38 36 38 39 39 40 39 37 37 33 31 30 27 23
14 13 11 9 15 17 13 13 19 14 17 22 22 18 13 24 22 27 27 40 43 36 31 32 40 32 36 35 56 38 22 15 20 21 20 24 28 37 38 37 38 39 36 42 39 36 39 39 34 31 31 30 26 28
6 17 19 26 19 17 15 14 18 19 17 25 18 32 36 20 29 21 21 39 39 37 40 41 39 47 56 53 58 21 16 16 10 24 22 26 31 39 43 43 40 35 34 35 36 40 39 37 33 34 31 32 32 30
9 11 25 29 33 28 15 25 22 13 14 11 12 18 16 10 15 19 32 28 35 47 46 42 33 37 44 40 21 15 15 24 17 8 21 19 29 34 38 39 37 35 34 34 38 38 39 37 36 33 32 30 32 28
16 12 23 34 27 27 19 13 16 16 16 23 19 19 14 9 0 6 8 14 19 15 20 42 38 34 33 34 28 27 10 18 24 21 21 21 25 31 40 33 35 38 36 37 36 37 36 37 36 34 34 34 31 28
12 20 16 16 17 12 14 12 17 19 24 29 20 25 26 16 26 37 31 35 43 24 17 31 39 34 33 37 31 29 22 21 27 33 37 38 42 37 39 44 45 42 43 45 42 40 40 38 37 37 35 33 30 28
23 29 25 20 20 18 26 24 27 33 29 31 31 32 38 36 32 29 37 51 44 32 26 22 32 37 35 33 26 24 25 22 25 34 41 44 46 51 46 47 47 42 46 52 50 49 44 44 43 39 35 32 31 29
33 28 23 22 26 35 32 25 30 32 30 28 29 35 39 41 41 47 47 39 41 29 24 23 34 34 34 34 33 31 26 28 31 32 39 53 56 47 51 49 48 49 51 50 54 52 47 43 39 36 33 32 32 23
40 39 31 26 24 26 25 26 24 28 32 34 40 38 37 36 35 29 21 16 22 31 37 38 43 37 34 32 30 28 29 35 38 43 60 55 56 55 50 46 46 50 52 52 51 48 44 40 37 34 33 28 28 31
37 30 26 20 19 20 23 22 13 20 30 39 46 42 38 31 14 15 26 21 25 30 35 42 35 31 35 31 30 31 39 41 45 56 53 61 61 56 51 46 50 53 51 49 48 45 41 38 36 35 34 33 29 30
Wind_Direction_500mb
200 201 201 204 207 210 212 217 220 222 226 232 233 238 240 240 248 272 274 264 266 278 276 276 304 317 336 346 347 321 276 191 248 231 251 254 293 161 260 314 184 195 198 200 214 201 233 130 143 190 90 95 97 110
197 198 200 203 208 211 213 217 219 221 224 229 234 237 236 237 239 274 269 264 265 286 275 272 273 277 284 306 317 313 302 318 2 265 231 313 264 167 166 184 347 262 201 130 100 139 315 311 73 89 91 98 112 136
194 197 198 202 207 208 208 215 218 220 222 227 232 233 236 236 232 247 269 287 275 291 282 269 268 266 272 271 267 269 321 2 335 343 312 55 333 335 3 28 336 261 138 105 137 199 182 249 130 120 129 130 134 138
194 197 199 202 206 204 205 210 216 218 218 222 229 234 237 238 231 242 265 290 287 279 281 284 297 271 275 266 255 256 272 293 297 293 285 231 176 150 2 325 332 286 176 154 126 180 181 157 161 144 130 136 133 140
187 200 204 203 205 202 205 211 215 218 216 218 226 234 236 239 233 237 266 266 251 230 311 299 301 236 277 250 251 253 258 274 290 294 248 252 265 114 210 189 241 330 356 42 62 123 96 135 136 146 145 140 140 138
188 204 206 202 203 202 204 212 214 218 212 213 222 230 234 237 229 270 269 222 226 240 276 292 313 260 270 234 227 238 243 253 263 276 279 268 158 312 262 161 156 78 313 5 89 83 110 116 124 132 134 139 142 144
196 205 205 202 201 202 206 214 211 214 207 207 217 228 233 232 219 232 257 43 224 201 249 278 282 248 247 221 226 234 233 244 253 264 253 271 284 170 269 296 169 173 136 103 106 111 109 125 130 132 136 136 139 139
202 205 204 203 200 201 203 209 206 206 202 199 209 224 230 241 242 233 251 251 324 213 236 264 257 293 226 201 224 217 228 221 239 242 263 235 236 138 220 126 127 119 128 128 110 126 127 130 131 134 136 141 141 143
202 202 202 202 200 200 203 204 201 196 190 186 191 198 223 241 222 218 218 230 265 224 266 258 205 271 214 210 228 216 217 233 232 221 244 263 220 219 209 150 149 148 144 150 132 132 134 134 141 143 143 149 148 149
198 198 200 200 199 200 202 202 198 187 176 168 153 192 211 196 182 156 191 210 218 212 229 253 270 228 331 199 227 237 193 235 212 223 218 240 232 222 229 240 213 182 162 156 140 140 141 143 150 156 151 155 154 155
197 197 197 198 197 200 199 199 188 176 168 158 187 227 122 155 180 210 230 208 189 214 209 233 237 273 270 260 230 284 249 215 232 204 213 212 230 211 220 210 224 224 169 176 146 143 144 164 162 155 154 157 158 159
198 196 196 197 197 195 196 191 181 177 172 178 213 232 156 187 205 215 199 218 209 236 190 223 219 206 239 261 90 303 272 231 225 194 192 226 200 202 224 203 199 175 164 155 150 145 160 164 159 159 159 159 159 160
197 198 199 197 198 200 196 187 190 177 170 205 235 216 188 220 249 222 218 200 203 216 239 216 214 198 228 216 176 303 235 256 234 167 175 236 217 201 194 161 161 168 158 157 158 154 156 154 156 159 159 160 159 160
201 200 200 197 200 197 188 188 186 164 182 212 214 231 217 209 211 220 232 232 206 264 347 348 287 174 229 200 85 258 268 270 196 187 149 252 246 165 152 156 153 156 150 154 154 152 152 154 156 157 160 160 161 160
203 200 196 198 197 190 185 186 176 178 202 229 206 226 212 242 262 275 222 174 105 89 27 314 278 232 191 232 152 310 288 246 234 182 201 145 160 150 167 158 156 148 148 152 151 151 154 155 154 155 158 162 163 162
190 190 198 195 187 185 181 185 172 187 219 240 237 242 238 215 248 209 205 152 122 33 182 206 295 212 228 153 171 183 276 227 230 27 114 138 147 153 151 150 148 154 153 152 152 155 155 156 156 155 157 161 163 165
181 189 187 181 177 175 172 169 175 196 210 228 234 243 259 272 235 28 45 68 346 141 157 240 243 272 178 211 178 176 252 320 346 86 128 136 139 140 141 146 153 153 152 152 154 155 155 156 157 155 157 163 164 165
184 188 178 171 168 169 170 170 173 198 216 230 237 249 245 248 286 149 122 129 173 197 100 332 317 258 208 205 175 214 275 305 293 230 109 119 126 136 141 142 148 149 148 152 153 154 156 157 156 158 161 162 161 164
183 180 174 169 169 150 134 182 198 225 217 223 225 255 293 282 251 158 142 117 170 99 105 302 275 248 253 340 100 222 267 304 286 110 117 131 139 141 145 148 149 150 151 153 154 155 159 161 158 162 163 164 166 168
171 169 169 171 168 140 149 177 195 246 224 208 232 233 249 250 218 207 190 163 151 159 219 199 240 321 342 338 314 315 238 248 246 139 126 132 137 142 149 150 150 151 150 153 154 156 159 156 161 162 165 166 169 172
161 165 168 167 169 163 203 174 183 207 215 237 234 242 247 250 261 200 221 186 193 210 244 241 258 269 298 311 301 313 328 226 252 353 149 144 148 150 153 154 156 153 156 158 160 163 162 164 165 167 169 171 172 174
152 163 152 161 169 228 236 214 191 190 208 237 256 231 239 240 238 231 230 218 226 239 242 256 266 261 275 302 308 318 328 310 169 82 98 140 148 154 159 160 160 159 162 163 165 164 164 165 165 166 168 171 171 172
153 152 146 127 156 212 252 232 201 197 191 216 214 214 240 241 245 246 241 240 248 249 251 263 269 263 272 294 302 283 297 266 205 159 145 144 156 159 158 163 162 160 159 163 163 162 163 163 163 162 165 163 164 164
145 148 164 162 181 203 188 189 194 225 227 220 222 232 244 230 220 243 250 245 238 245 243 237 240 226 265 276 270 270 263 227 178 162 165 154 156 156 161 161 160 161 162 157 160 155 161 158 160 161 162 164 161 159
114 184 185 201 192 169 193 191 196 209 220 236 228 246 245 237 222 222 233 240 247 243 236 241 218 207 242 249 281 270 226 203 178 161 160 162 156 154 157 159 159 158 159 156 153 156 156 159 159 162 162 165 163 161
141 202 194 186 181 192 203 197 195 210 216 234 225 232 246 247 262 243 236 231 229 231 233 239 218 205 223 222 241 199 182 191 213 168 172 168 164 163 161 158 151 156 161 163 162 158 159 158 161 160 161 164 161 161
209 189 193 184 192 203 222 226 232 223 204 221 220 209 235 240 240 225 234 240 239 236 238 235 226 227 234 234 223 233 204 176 170 158 177 171 170 170 167 163 161 160 161 163 160 163 158 159 158 157 157 156 158 159
209 197 191 195 198 196 210 232 242 231 226 230 211 218 225 236 341 76 42 350 333 304 250 229 225 223 221 223 213 180 206 162 175 158 159 163 170 160 154 154 161 160 157 157 158 156 158 155 153 152 150 149 149 153
197 202 191 202 210 210 200 217 219 218 228 225 224 231 253 298 310 314 313 319 332 319 262 221 210 215 215 210 206 169 178 174 165 166 169 159 137 138 159 162 159 152 157 156 155 157 151 149 149 146 145 145 146 148
204 198 200 202 207 216 225 222 232 239 238 243 263 278 282 283 289 300 300 302 307 291 258 232 201 197 202 170 176 172 175 180 182 182 178 157 153 154 149 149 150 153 154 158 154 149 149 148 143 142 142 142 143 144
214 206 204 214 222 228 234 232 243 256 263 276 274 276 277 285 290 295 295 299 281 251 235 218 197 204 178 181 186 184 185 186 179 179 174 168 158 151 150 153 154 155 153 152 150 147 146 144 145 144 144 148 150 147
205 213 217 225 228 229 223 245 257 260 263 259 258 260 278 289 287 289 303 272 225 216 208 199 192 192 184 184 190 188 193 172 169 173 168 160 146 152 151 151 153 154 148 145 147 148 146 146 146 146 150 148 146 144
201 206 218 235 224 238 244 243 264 276 258 250 247 246 240 245 248 261 292 262 226 206 195 186 183 187 190 187 184 178 168 173 170 163 162 156 154 150 152 153 154 148 146 147 149 148 147 146 145 144 141 140 140 138
Wind_Speed_850mb
65 57 50 44 37 33 30 29 27 20 18 14 14 15 15 16 12 8 12 19 16 12 45 33 36 43 45 29 14 32 11 13 14 20 23 25 11 8 17 13 25 27 21 17 16 16 11 8 16 8 7 3 18 16
63 57 50 43 37 33 29 29 28 26 20 17 14 14 16 16 14 10 13 17 21 18 31 40 50 43 37 30 31 30 31 27 17 10 10 9 6 5 12 6 14 29 26 10 8 6 31 49 27 16 14 12 11 21
62 53 46 41 37 31 28 26 26 26 24 18 16 16 16 16 16 12 12 15 17 22 45 45 47 43 40 37 27 21 29 27 17 24 16 6 10 11 7 4 10 24 26 12 13 17 32 61 10 9 9 14 14 24
59 50 45 41 36 31 27 23 24 23 24 20 17 15 16 17 18 13 12 10 13 13 9 19 23 33 37 39 31 33 41 40 38 31 22 5 7 6 7 3 10 44 15 21 13 27 39 29 16 18 15 17 20 24
55 45 43 40 36 33 27 26 21 22 23 21 17 16 16 16 17 17 16 17 14 15 8 24 44 41 35 39 41 36 33 32 32 30 16 14 17 11 23 11 21 18 7 5 15 32 24 32 24 19 20 21 23 32
51 47 44 39 38 35 28 23 25 21 21 20 17 16 16 14 14 7 10 20 11 16 7 8 18 42 31 34 33 35 32 30 29 23 24 29 6 7 6 10 16 26 27 8 17 27 41 35 26 23 25 25 28 28
47 46 44 41 40 36 31 22 25 22 21 21 17 15 15 14 16 19 6 5 6 14 6 10 13 24 34 42 37 34 31 29 32 33 33 37 19 15 8 10 57 89 32 36 36 39 36 27 31 26 28 26 27 26
48 47 45 42 42 38 31 22 23 23 20 20 14 12 12 13 19 25 21 22 14 12 6 6 8 19 31 19 33 34 35 29 21 26 31 27 11 3 7 27 34 42 41 35 21 23 28 34 30 30 29 29 29 29
48 48 45 43 43 39 32 25 24 21 21 19 12 8 6 9 16 18 16 7 8 14 6 7 7 6 36 30 28 17 22 9 23 19 25 16 17 6 18 27 37 36 24 36 35 38 36 34 30 28 29 29 30 31
48 46 45 44 42 40 35 30 27 25 25 20 15 7 12 20 12 13 10 9 10 13 12 10 13 13 22 31 12 7 13 14 15 23 29 23 16 42 28 20 16 40 31 39 44 40 40 34 32 29 30 28 29 32
47 47 46 43 41 39 37 33 33 34 32 22 14 9 9 26 15 13 10 15 17 11 18 21 39 6 30 18 15 9 7 10 24 16 22 21 25 27 30 30 23 23 34 31 29 30 29 35 36 33 30 29 32 34
49 49 46 44 40 41 38 39 44 47 32 25 5 4 20 15 15 12 10 9 10 10 24 29 44 37 27 10 7 8 10 10 15 29 23 33 20 37 40 38 27 38 40 30 23 29 33 33 34 34 33 33 34 34
49 50 48 48 43 42 41 46 53 45 29 17 11 8 10 13 4 12 16 10 9 12 13 20 18 29 12 15 7 2 12 11 16 12 4 12 34 50 46 40 32 28 33 32 30 34 36 36 35 36 36 36 37 37
52 52 52 51 44 44 48 53 48 49 15 12 11 5 10 12 14 17 19 21 23 7 13 10 23 18 13 7 5 7 11 13 12 15 11 17 58 47 52 50 47 43 45 37 38 41 39 41 39 37 37 41 41 40
55 54 55 51 48 50 55 58 57 50 11 12 13 9 17 28 20 13 37 12 4 5 10 12 16 16 15 8 6 6 9 9 9 13 12 48 42 41 50 53 44 50 47 42 45 45 42 41 43 41 40 41 39 40
59 50 55 55 55 56 61 53 66 37 8 9 14 16 23 28 26 18 20 13 4 3 3 10 7 9 6 7 7 6 10 9 13 3 29 51 40 50 53 47 42 45 47 50 47 46 45 44 45 46 43 41 39 39
61 45 61 60 61 66 65 54 39 14 14 11 16 31 25 27 29 9 10 6 1 4 6 6 6 7 9 11 17 12 7 9 26 17 36 36 40 45 47 49 48 49 52 51 51 49 48 47 48 48 45 41 39 37
63 58 66 66 72 70 68 38 14 18 16 25 17 25 33 19 24 4 9 5 6 4 4 6 12 9 9 22 19 7 26 25 5 19 29 35 37 42 43 48 47 50 52 52 53 52 52 52 50 45 44 41 38 35
63 57 70 80 86 52 14 26 15 11 25 28 38 16 14 30 12 12 11 9 10 3 2 3 11 14 13 5 10 22 29 51 29 12 20 28 36 41 44 45 48 48 50 52 56 53 50 47 42 43 40 41 34 33
54 67 82 85 82 13 11 12 28 11 14 31 38 35 30 23 18 19 17 15 9 6 12 12 13 21 32 32 12 31 31 29 18 17 20 23 30 37 44 50 49 51 50 52 47 48 46 41 39 39 37 38 34 32
71 82 81 79 44 10 9 16 24 20 8 13 25 32 30 28 30 16 22 26 20 9 11 29 43 49 51 53 31 46 1 29 19 17 29 27 29 35 42 41 49 44 49 48 47 43 42 40 39 37 36 33 28 27
75 85 68 38 19 8 12 17 22 24 25 21 17 26 25 30 38 36 39 37 37 37 34 33 28 36 59 55 52 32 26 19 3 15 23 28 34 37 42 43 46 44 43 42 43 43 40 36 35 35 32 30 27 25
87 59 36 12 8 10 12 13 20 18 12 11 30 13 14 29 37 35 41 42 45 42 42 36 38 33 37 50 55 33 23 20 10 14 16 18 24 34 37 39 40 43 43 41 39 38 36 37 38 32 31 30 27 27
62 27 15 18 16 12 10 13 12 18 17 15 9 24 22 26 32 37 22 41 43 41 37 39 33 23 23 40 57 48 21 19 10 17 17 21 30 32 35 40 38 36 38 39 39 40 39 37 37 33 31 30 27 23
14 13 11 9 15 17 13 13 19 14 17 22 22 18 13 24 22 27 27 40 43 36 31 32 40 32 36 35 56 38 22 15 20 21 20 24 28 37 38 37 38 39 36 42 39 36 39 39 34 31 31 30 26 28
6 17 19 26 19 17 15 14 18 19 17 25 18 32 36 20 29 21 21 39 39 37 40 41 39 47 56 53 58 21 16 16 10 24 22 26 31 39 43 43 40 35 34 35 36 40 39 37 33 34 31 32 32 30
9 11 25 29 33 28 15 25 22 13 14 11 12 18 16 10 15 19 32 28 35 47 46 42 33 37 44 40 21 15 15 24 17 8 21 19 29 34 38 39 37 35 34 34 38 38 39 37 36 33 32 30 32 28
16 12 23 34 27 27 19 13 16 16 16 23 19 19 14 9 0 6 8 14 19 15 20 42 38 34 33 34 28 27 10 18 24 21 21 21 25 31 40 33 35 38 36 37 36 37 36 37 36 34 34 34 31 28
12 20 16 16 17 12 14 12 17 19 24 29 20 25 26 16 26 37 31 35 43 24 17 31 39 34 33 37 31 29 22 21 27 33 37 38 42 37 39 44 45 42 43 45 42 40 40 38 37 37 35 33 30 28
23 29 25 20 20 18 26 24 27 33 29 31 31 32 38 36 32 29 37 51 44 32 26 22 32 37 35 33 26 24 25 22 25 34 41 44 46 51 46 47 47 42 46 52 50 49 44 44 43 39 35 32 31 29
33 28 23 22 26 35 32 25 30 32 30 28 29 35 39 41 41 47 47 39 41 29 24 23 34 34 34 34 33 31 26 28 31 32 39 53 56 47 51 49 48 49 51 50 54 52 47 43 39 36 33 32 32 23
40 39 31 26 24 26 25 26 24 28 32 34 40 38 37 36 35 29 21 16 22 31 37 38 43 37 34 32 30 28 29 35 38 43 60 55 56 55 50 46 46 50 52 52 51 48 44 40 37 34 33 28 28 31
37 30 26 20 19 20 23 22 13 20 30 39 46 42 38 31 14 15 26 21 25 30 35 42 35 31 35 31 30 31 39 41 45 56 53 61 61 56 51 46 50 53 51 49 48 45 41 38 36 35 34 33 29 30
Wind_Direction_850mb
200 201 201 204 207 210 212 217 220 222 226 232 233 238 240 240 248 272 274 264 266 278 276 276 304 317 336 346 347 321 276 191 248 231 251 254 293 161 260 314 184 195 198 200 214 201 233 130 143 190 90 95 97 110
197 198 200 203 208 211 213 217 219 221 224 229 234 237 236 237 239 274 269 264 265 286 275 272 273 277 284 306 317 313 302 318 2 265 231 313 264 167 166 184 347 262 201 130 100 139 315 311 73 89 91 98 112 136
194 197 198 202 207 208 208 215 218 220 222 227 232 233 236 236 232 247 269 287 275 291 282 269 268 266 272 271 267 269 321 2 335 343 312 55 333 335 3 28 336 261 138 105 137 199 182 249 130 120 129 130 134 138
194 197 199 202 206 204 205 210 216 218 218 222 229 234 237 238 231 242 265 290 287 279 281 284 297 271 275 266 255 256 272 293 297 293 285 231 176 150 2 325 332 286 176 154 126 180 181 157 161 144 130 136 133 140
187 200 204 203 205 202 205 211 215 218 216 218 226 234 236 239 233 237 266 266 251 230 311 299 301 236 277 250 251 253 258 274 290 294 248 252 265 114 210 189 241 330 356 42 62 123 96 135 136 146 145 140 140 138
188 204 206 202 203 202 204 212 214 218 212 213 222 230 234 237 229 270 269 222 226 240 276 292 313 260 270 234 227 238 243 253 263 276 279 268 158 312 262 161 156 78 313 5 89 83 110 116 124 132 134 139 142 144
196 205 205 202 201 202 206 214 211 214 207 207 217 228 233 232 219 232 257 43 224 201 249 278 282 248 247 221 226 234 233 244 253 264 253 271 284 170 269 296 169 173 136 103 106 111 109 125 130 132 136 136 139 139
202 205 204 203 200 201 203 209 206 206 202 199 209 224 230 241 242 233 251 251 324 213 236 264 257 293 226 201 224 217 228 221 239 242 263 235 236 138 220 126 127 119 128 128 110 126 127 130 131 134 136 141 141 143
202 202 202 202 200 200 203 204 201 196 190 186 191 198 223 241 222 218 218 230 265 224 266 258 205 271 214 210 228 216 217 233 232 221 244 263 220 219 209 150 149 148 144 150 132 132 134 134 141 143 143 149 148 149
198 198 200 200 199 200 202 202 198 187 176 168 153 192 211 196 182 156 191 210 218 212 229 253 270 228 331 199 227 237 193 235 212 223 218 240 232 222 229 240 213 182 162 156 140 140 141 143 150 156 151 155 154 155
197 197 197 198 197 200 199 199 188 176 168 158 187 227 122 155 180 210 230 208 189 214 209 233 237 273 270 260 230 284 249 215 232 204 213 212 230 211 220 210 224 224 169 176 146 143 144 164 162 155 154 157 158 159
198 196 196 197 197 195 196 191 181 177 172 178 213 232 156 187 205 215 199 218 209 236 190 223 219 206 239 261 90 303 272 231 225 194 192 226 200 202 224 203 199 175 164 155 150 145 160 164 159 159 159 159 159 160
197 198 199 197 198 200 196 187 190 177 170 205 235 216 188 220 249 222 218 200 203 216 239 216 214 198 228 216 176 303 235 256 234 167 175 236 217 201 194 161 161 168 158 157 158 154 156 154 156 159 159 160 159 160
201 200 200 197 200 197 188 188 186 164 182 212 214 231 217 209 211 220 232 232 206 264 347 348 287 174 229 200 85 258 268 270 196 187 149 252 246 165 152 156 153 156 150 154 154 152 152 154 156 157 160 160 161 160
203 200 196 198 197 190 185 186 176 178 202 229 206 226 212 242 262 275 222 174 105 89 27 314 278 232 191 232 152 310 288 246 234 182 201 145 160 150 167 158 156 148 148 152 151 151 154 155 154 155 158 162 163 162
190 190 198 195 187 185 181 185 172 187 219 240 237 242 238 215 248 209 205 152 122 33 182 206 295 212 228 153 171 183 276 227 230 27 114 138 147 153 151 150 148 154 153 152 152 155 155 156 156 155 157 161 163 165
181 189 187 181 177 175 172 169 175 196 210 228 234 243 259 272 235 28 45 68 346 141 157 240 243 272 178 211 178 176 252 320 346 86 128 136 139 140 141 146 153 153 152 152 154 155 155 156 157 155 157 163 164 165
184 188 178 171 168 169 170 170 173 198 216 230 237 249 245 248 286 149 122 129 173 197 100 332 317 258 208 205 175 214 275 305 293 230 109 119 126 136 141 142 148 149 148 152 153 154 156 157 156 158 161 162 161 164
183 180 174 169 169 150 134 182 198 225 217 223 225 255 293 282 251 158 142 117 170 99 105 302 275 248 253 340 100 222 267 304 286 110 117 131 139 141 145 148 149 150 151 153 154 155 159 161 158 162 163 164 166 168
171 169 169 171 168 140 149 177 195 246 224 208 232 233 249 250 218 207 190 163 151 159 219 199 240 321 342 338 314 315 238 248 246 139 126 132 137 142 149 150 150 151 150 153 154 156 159 156 161 162 165 166 169 172
161 165 168 167 169 163 203 174 183 207 215 237 234 242 247 250 261 200 221 186 193 210 244 241 258 269 298 311 301 313 328 226 252 353 149 144 148 150 153 154 156 153 156 158 160 163 162 164 165 167 169 171 172 174
152 163 152 161 169 228 236 214 191 190 208 237 256 231 239 240 238 231 230 218 226 239 242 256 266 261 275 302 308 318 328 310 169 82 98 140 148 154 159 160 160 159 162 163 165 164 164 165 165 166 168 171 171 172
153 152 146 127 156 212 252 232 201 197 191 216 214 214 240 241 245 246 241 240 248 249 251 263 269 263 272 294 302 283 297 266 205 159 145 144 156 159 158 163 162 160 159 163 163 162 163 163 163 162 165 163 164 164
145 148 164 162 181 203 188 189 194 225 227 220 222 232 244 230 220 243 250 245 238 245 243 237 240 226 265 276 270 270 263 227 178 162 165 154 156 156 161 161 160 161 162 157 160 155 161 158 160 161 162 164 161 159
114 184 185 201 192 169 193 191 196 209 220 236 228 246 245 237 222 222 233 240 247 243 236 241 218 207 242 249 281 270 226 203 178 161 160 162 156 154 157 159 159 158 159 156 153 156 156 159 159 162 162 165 163 161
141 202 194 186 181 192 203 197 195 210 216 234 225 232 246 247 262 243 236 231 229 231 233 239 218 205 223 222 241 199 182 191 213 168 172 168 164 163 161 158 151 156 161 163 162 158 159 158 161 160 161 164 161 161
209 189 193 184 192 203 222 226 232 223 204 221 220 209 235 240 240 225 234 240 239 236 238 235 226 227 234 234 223 233 204 176 170 158 177 171 170 170 167 163 161 160 161 163 160 163 158 159 158 157 157 156 158 159
209 197 191 195 198 196 210 232 242 231 226 230 211 218 225 236 341 76 42 350 333 304 250 229 225 223 221 223 213 180 206 162 175 158 159 163 170 160 154 154 161 160 157 157 158 156 158 155 153 152 150 149 149 153
197 202 191 202 210 210 200 217 219 218 228 225 224 231 253 298 310 314 313 319 332 319 262 221 210 215 215 210 206 169 178 174 165 166 169 159 137 138 159 162 159 152 157 156 155 157 151 149 149 146 145 145 146 148
204 198 200 202 207 216 225 222 232 239 238 243 263 278 282 283 289 300 300 302 307 291 258 232 201 197 202 170 176 172 175 180 182 182 178 157 153 154 149 149 150 153 154 158 154 149 149 148 143 142 142 142 143 144
214 206 204 214 222 228 234 232 243 256 263 276 274 276 277 285 290 295 295 299 281 251 235 218 197 204 178 181 186 184 185 186 179 179 174 168 158 151 150 153 154 155 153 152 150 147 146 144 145 144 144 148 150 147
205 213 217 225 228 229 223 245 257 260 263 259 258 260 278 289 287 289 303 272 225 216 208 199 192 192 184 184 190 188 193 172 169 173 168 160 146 152 151 151 153 154 148 145 147 148 146 146 146 146 150 148 146 144
201 206 218 235 224 238 244 243 264 276 258 250 247 246 240 245 248 261 292 262 226 206 195 186 183 187 190 187 184 178 168 173 170 163 162 156 154 150 152 153 154 148 146 147 149 148 147 146 145 144 141 140 140 138